Location: Cactus School
(34.5700°N, 118.0931°W)
Time: 15:58:48
(UTC-08:00)

Tiros 1 - Pass Details

Date: 27 November 2019
Orbit: 630 x 664 km, 48.4° (Epoch: 08 December)

Event Time Altitude Azimuth Distance (km) Brightness Sun altitude
Rises 10:21:04 0° 235° (SW) 2,924 10.7 31.2°
Reaches altitude 10° 10:23:24 10° 237° (WSW) 2,013 9.9 31.4°
Maximum altitude 10:28:01 76° 322° (NW) 653 7.5 31.7°
Drops below altitude 10° 10:32:39 10° 50° (NE) 2,009 9.6 32.0°
Sets 10:34:58 0° 52° (NE) 2,917 10.3 32.2°
